Hourly Data Report for July 25, 2021

FLIN FLON
MANITOBA
Current Station Operator: ECCC - MSC

54°41'00.000" N
101°41'00.000" W
303.90 m
5050919
71954
WFO

Download Data

Hourly Data (July 2021)
Hourly Data Report for July 25, 2021
TIME
LST
Temp Definition
°C
Dew Point Definition
°C
Rel Hum Definition
%
Precip. Amount Definition
mm

Wind Dir Definition
10's deg

Wind Spd Definition
km/h
Visibility Definition
km
Stn Press Definition
kPa
Hmdx Definition


Wind Chill Definition


Weather Definition


00:00 14.2 13.3 94 0.0 28 7   97.25     LegendNANA
01:00 14.2 13.3 94 0.0 28 10   97.28     LegendNANA
02:00 14.2 13.2 93 0.0 28 8   97.27     LegendNANA
03:00 14.5 13.4 94 0.0 28 7   97.30     LegendNANA
04:00 14.2 13.3 94 0.0 27 6   97.32     LegendNANA
05:00 14.3 13.3 94 0.0 29 6   97.38     LegendNANA
06:00 14.1 13.2 95 0.0 30 5   97.39     LegendNANA
07:00 15.1 14.0 93 0.0 31 7   97.46     LegendNANA
08:00 16.0 14.0 88 0.0 32 7   97.50     LegendNANA
09:00 16.6 13.5 82 0.0 33 6   97.52     LegendNANA
10:00 15.7 13.7 88 0.1 3 5   97.55     LegendNANA
11:00 16.1 14.1 88 0.1 12 3   97.56     LegendNANA
12:00 15.4 14.5 94 4.2 34 7   97.62     LegendNANA
13:00 15.7 13.6 87 3.1 6 4   97.63     LegendNANA
14:00 17.4 12.9 75 0.0 36 14   97.66     LegendNANA
15:00 18.5 11.7 64 0.0 35 14   97.64     LegendNANA
16:00 19.4 11.3 59 0.0 35 10   97.61     LegendNANA
17:00 19.5 11.3 59 0.0 34 12   97.61     LegendNANA
18:00 19.5 10.5 56 0.0 35 6   97.59     LegendNANA
19:00 19.6 10.6 56 0.0 33 11   97.58     LegendNANA
20:00 19.1 10.9 59 0.0 30 9   97.60     LegendNANA
21:00 16.2 11.6 74 0.0 34 2   97.62     LegendNANA
22:00 14.2 11.8 86 0.0 35 5   97.64     LegendNANA
23:00 14.8 11.3 80 0.0 2 5   97.66     LegendNANA

Notes on Data Quality.

Legend

  • E = Estimated
  • M = Missing
  • NA = Not Available*
  • [empty] = Indicates an unobserved value
Date modified: